{"data":{"norad_id":52266,"epoch":"2026-09-19T17:36:23.862528Z","epoch_age_seconds":125739,"freshness":"FRESH","line1":"1 52266U 22041F   26262.73360952  .00010580  00000+0  62811-3 0  9997","line2":"2 52266  53.2139 316.7691 0000690  80.8141 279.2931 15.11844024243671","mean_motion":15.11844024,"eccentricity":6.9e-5,"inclination_deg":53.2139,"raan_deg":316.7691,"arg_perigee_deg":80.8141,"mean_anomaly_deg":279.2931,"bstar":0.00062811,"rev_number":24367,"period_min":95.247920892665,"perigee_km":530.09979547753,"apogee_km":531.05319794008,"semimajor_km":6908.7134967088,"source":"CELESTRAK","updated_at":"2026-09-20T09:00:40.011730Z"}}